Regional Weather Roundup
Issued by NWS Cleveland, OH

Home | Current Version | Previous Version | Graphics & Text | Print | Product List | Glossary On
Versions: 1 2 3 4 5 6 7 8 9 10 11 12 13 14 15 16 17 18 19 20 21 22 23 24 25 26 27 28 29 30 31 32 33 34 35 36 37 38 39 40 41 42 43 44 45 46 47 48 49 50
000
ASUS41 KCLE 201210
RWRCLE
OHIO REGIONAL WEATHER ROUNDUP
NATIONAL WEATHER SERVICE CLEVELAND, OH
800 AM EDT SUN APR 20 2014

NOTE: "FAIR" INDICATES FEW OR NO CLOUDS BELOW 12,000 FEET WITH NO
SIGNIFICANT WEATHER AND/OR OBSTRUCTIONS TO VISIBILITY.

OHZ001>008-015>018-024>027-034-035-043-044-201300-
   NORTHWEST OHIO

CITY           SKY/WX    TMP DP  RH WIND       PRES   REMARKS
DEFIANCE       SUNNY     37  31  78 CALM      30.31S
FINDLAY        SUNNY     40  33  76 SE3       30.28S
TOLEDO EXPRESS SUNNY     38  34  85 CALM      30.31S
TOLEDO EXEC    SUNNY     40  35  83 E3        30.32S
LIMA           SUNNY     43  34  70 E3        30.28S
$$

OHZ009>014-019>023-028>033-038-089-201300-
   NORTHEAST OHIO

CITY           SKY/WX    TMP DP  RH WIND       PRES   REMARKS
CLE-HOPKINS    MOSUNNY   45  33  63 SE6       30.34S
CLE-LAKEFRONT  SUNNY     46  30  53 SE10      30.30S
CUY CO. ARPT   PTSUNNY   48  30  49 SE14      30.33R
LORAIN-ELYRIA  SUNNY     42  33  70 S5        30.32S
ASHTABULA      SUNNY     46  27  47 SE12      30.35S
AKRON-CANTON   PTSUNNY   45  28  51 E6        30.33R
WOOSTER        SUNNY     43  34  70 CALM      30.33R
MANSFIELD      SUNNY     44  32  62 SE8       30.31R
YOUNGSTOWN     MOSUNNY   46  28  49 E12       30.35R
$$

OHZ042-051>053-060>062-070>072-077>081-201300-
  SOUTHWEST OHIO

CITY           SKY/WX    TMP DP  RH WIND       PRES   REMARKS
CINC-COVINGTON PTSUNNY   48  34  58 NE5       30.27R
CINC-LUNKEN    MOSUNNY   39  38  96 CALM      30.29S
HAMILTON       MOSUNNY   44  38  79 CALM      30.29R
DAYTON         PTSUNNY   44  34  67 CALM      30.29S
WRIGHT-PAT AFB SUNNY     42  33  71 N2        30.29R
DAYTON GENERAL MOSUNNY   46  33  60 E8        30.27R
WILMINGTON     MOSUNNY   45  33  63 NE6       30.28R
$$

OHZ036-037-039>041-045>050-054>059-063>069-073>076-082>088-201300-
  CENTRAL AND SOUTHEAST OHIO

CITY           SKY/WX    TMP DP  RH WIND       PRES   REMARKS
COLUMBUS       PTSUNNY   49  32  52 E5        30.28F
OSU AIRPORT    SUNNY     42  37  82 CALM      30.29S
BOLTON FIELD   SUNNY     41  37  87 CALM      30.29S
RICKENBACK AFB SUNNY     45  33  62 E3        30.29S
NEWARK         SUNNY     43  32  65 E3        30.30S
MARION         SUNNY     37  32  82 CALM      30.30R
LANCASTER      SUNNY     44  34  67 CALM      30.30R
ZANESVILLE     SUNNY     44  32  62 N3        30.31R
NEW PHILLY     SUNNY     40  35  83 SE3       30.33S
$$



USA.gov is the U.S. government's official web portal to all federal, state and local government web resources and services.